Airfield :
LOGIN :

Register | Disclaimer

   EN    FR    IT 

 










Legend :    VFR   Marginal VFR   IFR   Intensive IFR   Very Intensive IFR
Visi :
Ceiling :
>= 8 km
>= 3000ft
5 to 8 km
1000 to 3000 ft
1500m to 5 km
500 to 1000 ft
800 to 1500m
200 to 500 ft
< 800m
< 200 ft
Symbols :   Thunderstorms  Fog  Heavy snow  Heavy precipitations  Wind > 20 kt
SIGMETs :     Misc.  Thunderstorms  Icing  Turbulence  Mountain Waves  Volcanic Ashes







- Airport Elevation : 636 ft


LPBJ - Beja Air Base

CURRENT METAR :
  • 190600Z 21008KT 9999 BKN045 17/15 Q1016

EXPIRED METARs :
  • 190500Z 19006KT 9999 SCT020 BKN035 17/15 Q1016
  • 190400Z 20007KT 9999 SCT010 BKN025 17/15 Q1016

TAF TAF LPBJ
Valid from the 19 at 06:00 until the 20 at 06:00 UTC


190515Z 1906/2006 22008KT 9999 SCT015 SCT030
TEMPO 1906/1911 3000 -RADZ BR SCT003 BKN006
BECMG 1910/1912 SCT030
BECMG 1922/1924 30005KT 5000 BCFG SCT004
PROB40 2000/2006 0800 FG BKN002
No reported NOTAMs for that airfield.



MET'MAP, your aeronautical weather chart ! - Copyright ORBIFLY December 2007 - Disclaimer

ORBIFLY MET'MAP TEAM :

Programming & Development : Alexandra Zaïnal
Concept & Development : Baudouin d'Aumeries
Co-Development & Prog : Marc-Olivier Méhu
Technical & hardware support : Manuel Goepfert

Contact : metmap@orbifly.com




SOURCES & CREDITS :

   NOAA